SCP
0 0 0 0 0 0 0 0 0 0 0 0 0 0 0 0 0 0 0 0 0 0 0 0 0 0 0 0 0 0 0 0 0 0 0 0 0 0 0 0 0 0 0
0 0 0 0 0 0 0 0 0 0 0 0 0 0 0 0 0 0 0 0 0 0 0 0 0 0 0 0 0 0 0 0 0 0 0 0 0 0 0 0 0 0 0
0 0 0 0 0 0 0 0 0 0 0 0 0 0 0 0 0 0 0 0 0 0 0 0 0 0 0 0 0 0 0 0 0 0 0 0 0 0 0 0 0 0 0
0 0 0 1 1 1 1 1 1 0 0 0 0 0 0 0 0 0 0 0 0 0 0 0 0 0 0 0 0 0 0 0 0 0 0 0 0 0 0 0 0 0 0
0 0 0 1 1 1 1 1 1 1 0 0 0 0 0 0 0 0 0 0 0 0 0 0 0 0 0 0 0 0 0 0 0 0 0 0 0 0 0 0 0 0 0
0 0 0 1 1 1 1 1 1 0 0 0 0 0 0 0 0 0 0 0 0 0 0 0 0 0 0 0 0 0 0 0 0 0 0 0 0 0 0 0 0 0 0
0 0 0 1 1 1 0 0 0 0 0 0 0 0 0 0 0 0 0 0 0 0 0 0 0 0 0 0 0 0 0 0 0 0 0 0 0 0 0 0 0 0 0
0 0 0 0 0 0 0 0 0 0 0 0 0 0 0 0 0 0 0 0 0 0 0 0 0 0 0 0 0 0 0 0 0 0 0 0 0 0 0 0 0 0 0
0 0 0 0 0 0 0 0 0 0 0 0 0 0 0 0 0 0 0 0 0 0 0 0 0 0 0 0 0 0 0 0 0 0 0 0 0 0 0 0 0 0 0
0 0 0 0 0 0 0 0 0 0 0 0 0 0 0 0 0 0 0 0 0 0 0 0 0 0 0 0 0 0 0 0 0 0 0 0 0 0 0 0 0 0 0
0 0 0 0 0 0 0 0 0 0 0 0 0 0 0 0 0 0 0 0 0 0 0 0 0 0 0 0 0 0 0 0 0 0 0 0 0 0 0 0 0 0 0
0 0 0 0 0 0 0 0 0 0 0 0 0 0 0 0 0 0 0 0 0 0 0 0 0 0 0 0 0 0 0 0 0 0 0 0 0 0 0 0 0 0 0
0 0 0 0 0 0 0 0 0 0 0 0 0 0 0 0 0 0 0 0 0 0 0 0 0 0 0 0 0 0 0 0 0 0 0 0 0 0 0 0 0 0 0
0 0 0 0 0 0 0 0 0 0 0 0 0 0 0 0 0 0 0 0 0 0 0 0 0 0 0 0 0 0 0 0 0 0 0 0 0 0 0 0 0 0 0
0 0 0 0 0 0 0 0 0 0 0 0 0 0 0 0 0 0 0 0 0 0 0 0 0 0 0 0 0 0 0 0 0 0 0 0 0 0 0 0 0 0 0
0 0 0 0 0 0 0 0 0 0 0 0 0 0 0 0 0 0 0 0 0 0 0 0 0 0 0 0 0 0 0 0 0 0 0 0 0 0 0 0 0 0 0
0 0 0 0 0 0 0 0 0 0 0 0 0 0 0 0 0 0 0 0 0 0 0 0 0 0 0 0 0 0 0 0 0 0 0 0 0 0 0 0 0 0 0
0 0 0 0 0 0 0 0 0 0 0 0 0 0 0 0 0 0 0 0 0 0 0 0 0 0 0 0 0 0 0 0 0 0 0 0 0 0 0 0 0 0 0
0 0 0 0 0 0 0 0 0 0 0 0 0 0 0 0 0 0 0 0 0 0 0 0 0 0 0 0 0 0 0 0 0 0 0 0 0 0 0 0 0 0 0
0 0 0 0 0 0 0 0 0 0 0 0 0 0 0 0 0 0 0 0 0 0 0 0 0 0 0 0 0 0 0 0 0 0 0 0 0 0 0 0 0 0 0
0 0 0 0 0 0 0 0 0 0 0 0 0 0 0 0 0 0 0 0 0 0 0 0 0 0 0 0 0 0 0 0 0 0 0 0 0 0 0 0 0 0 0
0 0 0 0 0 0 0 0 0 0 0 0 0 0 0 0 0 0 0 0 0 0 0 0 0 0 0 0 0 0 0 0 0 0 0 0 0 0 0 0 0 0 0
0 0 0 0 0 0 0 0 0 0 0 0 0 0 0 0 0 0 0 0 0 0 0 0 0 0 0 0 0 0 0 0 0 0 0 0 0 0 0 0 0 0 0
0 0 0 0 0 0 0 0 0 0 0 0 0 0 0 0 0 0 0 0 0 0 0 0 0 0 0 0 0 0 0 0 0 0 0 0 0 0 0 0 0 0 0
0 0 0 0 0 0 0 0 0 0 0 0 0 0 0 0 0 0 0 0 0 0 0 0 0 0 0 0 0 0 0 0 0 0 0 0 0 0 0 0 0 0 0
0 0 0 0 0 0 0 0 0 0 0 0 0 0 0 0 0 0 0 0 0 0 0 0 0 0 0 0 0 0 0 0 0 0 0 0 0 0 0 0 0 0 0
Wind_Speed
4 6 12 13 13 13 13 13 13 13 13 13 13 13 13 13 13 13 13 12 12 11 11 11 11 10 11 11 11 10 10 10 10 9 9 9 9 9 10 9 8 6 9
7 7 13 13 13 13 13 13 13 13 13 13 13 13 13 13 13 13 12 12 11 11 11 10 10 10 10 10 10 10 9 9 8 8 8 7 7 8 8 8 7 5 8
9 8 11 14 13 13 13 13 13 13 13 12 12 12 12 12 12 12 12 12 11 10 10 10 10 10 9 9 9 9 9 8 8 7 6 3 4 6 7 7 7 7 6
10 8 10 14 14 14 14 13 13 13 12 12 12 12 12 12 12 11 11 11 11 10 10 9 9 9 8 8 8 7 7 7 7 7 4 2 2 5 6 6 6 6 5
8 8 10 14 14 14 14 13 13 13 12 12 12 11 11 11 11 11 11 10 10 10 9 8 8 7 7 6 6 6 6 6 6 5 2 1 1 3 4 5 4 4 4
8 7 10 14 14 14 13 13 12 12 12 12 11 11 11 11 11 10 10 10 9 9 8 8 7 7 6 6 5 5 5 5 5 3 2 1 0 2 3 4 3 3 3
8 6 9 14 14 13 13 12 12 12 12 11 11 10 10 10 10 9 9 9 8 8 7 7 6 6 5 5 4 4 4 4 3 2 1 0 0 2 2 2 2 2 1
8 7 8 12 13 13 12 12 11 11 11 10 10 10 9 9 9 9 8 8 7 7 6 6 5 5 5 4 4 3 3 3 3 1 0 0 1 1 1 1 1 0 0
8 7 5 6 8 11 12 11 11 10 10 10 10 9 9 8 8 8 7 6 6 6 5 5 4 4 4 4 4 3 3 3 2 1 0 1 1 1 0 0 0 1 1
6 6 5 5 5 5 6 9 10 9 9 9 9 8 8 7 7 7 6 5 5 5 5 4 3 3 3 3 3 3 3 2 1 1 1 1 1 2 2 2 2 2 2
6 5 5 5 5 4 4 6 7 7 7 7 6 7 6 3 3 3 4 5 5 4 4 3 3 3 2 2 2 2 2 1 1 1 1 2 3 3 3 3 3 4 4
7 5 4 5 5 4 4 4 3 3 3 3 3 3 3 2 2 3 4 4 4 3 3 2 2 2 2 1 1 1 1 1 1 1 1 3 4 5 5 5 5 5 6
7 6 5 5 5 4 3 3 2 2 2 2 3 3 3 2 2 2 1 1 1 2 1 1 1 1 0 0 0 0 1 1 1 1 2 5 5 6 7 7 7 7 7
7 6 5 5 4 4 4 3 2 2 2 2 2 3 3 2 2 1 1 1 1 0 0 0 0 1 1 1 1 1 1 1 1 2 3 6 7 7 8 8 8 8 9
7 7 6 5 5 4 3 3 3 2 2 2 2 2 3 2 2 1 1 1 0 0 0 0 0 1 1 1 1 1 2 2 2 2 2 5 7 8 9 9 9 9 9
8 8 6 6 5 5 3 3 3 2 2 2 2 2 3 2 2 2 1 1 1 0 0 1 1 1 1 1 2 2 2 3 3 3 2 4 7 8 9 10 10 10 10
8 8 7 6 5 5 4 3 3 3 3 2 2 2 2 2 2 2 2 1 1 1 1 0 1 1 1 2 2 3 2 3 3 3 3 2 3 6 9 10 11 11 11
8 7 7 6 6 5 4 3 2 2 3 2 2 2 2 3 3 2 2 2 1 1 1 0 0 1 1 2 2 3 2 2 3 3 3 3 2 3 6 10 11 12 12
9 9 7 6 6 5 4 3 2 2 2 2 2 2 2 3 3 2 2 2 1 1 1 1 1 1 1 2 2 2 2 3 3 3 3 3 3 3 3 6 10 11 12
8 8 7 6 5 4 3 2 1 1 1 1 2 2 2 2 3 2 2 2 2 1 1 1 1 1 1 2 2 3 3 3 2 2 3 3 3 4 3 4 4 6 11
7 7 7 6 5 4 3 2 2 1 1 1 2 3 3 2 2 2 2 2 2 2 2 2 1 1 1 1 1 3 3 3 3 3 2 2 3 4 3 4 3 3 5
8 8 7 7 6 5 3 3 2 2 1 2 2 2 2 2 2 2 3 2 3 2 2 2 1 1 1 0 0 1 3 4 3 3 2 3 3 3 3 5 4 5 4
8 9 8 7 6 5 4 2 2 1 1 0 1 2 2 2 3 3 3 2 2 3 3 3 3 2 2 1 1 2 1 3 4 3 3 3 3 3 4 4 5 5 5
8 7 7 6 6 5 5 4 4 3 2 3 2 2 2 2 3 3 3 3 3 2 3 3 2 2 3 2 1 2 2 2 2 4 3 3 4 4 5 5 5 5 5
7 7 6 6 5 4 4 5 4 2 2 1 1 2 2 2 3 3 3 3 3 3 3 3 3 2 2 3 2 2 2 2 2 3 6 5 4 4 4 5 4 5 5
5 5 5 5 4 4 4 4 4 3 2 1 2 2 2 2 2 3 3 3 3 3 3 4 4 4 3 3 3 2 2 2 3 3 5 7 6 5 4 4 4 4 5
Wind_Direction
155 160 141 134 130 126 122 118 114 111 108 106 105 103 101 100 100 102 103 102 102 100 100 100 100 99 96 94 92 91 90 89 88 88 89 90 91 92 89 87 85 81 89
151 149 139 135 132 128 124 120 116 112 110 108 105 104 104 102 102 103 104 102 102 100 98 96 98 97 96 94 92 90 90 88 88 87 86 87 90 93 94 94 94 89 91
138 142 139 134 131 127 122 119 117 115 112 109 108 107 106 104 103 103 103 100 99 99 99 96 98 96 95 94 92 90 89 86 85 85 85 69 83 95 99 100 99 94 94
136 137 138 133 130 126 123 120 118 116 114 111 110 109 108 106 105 104 104 101 97 95 95 95 96 95 94 95 94 92 90 88 85 82 71 61 68 97 100 104 104 101 98
131 135 138 134 131 128 125 122 119 118 117 114 112 111 111 110 107 106 103 101 97 94 92 92 92 93 92 93 93 93 91 90 85 73 61 50 43 108 108 105 108 109 106
127 132 137 134 132 129 127 124 121 119 117 116 114 114 113 112 108 105 102 101 99 97 93 91 89 90 88 89 92 94 93 91 81 64 58 40 35 127 117 110 104 116 122
128 131 137 133 132 129 128 125 122 120 119 117 115 114 114 113 111 107 103 101 99 98 96 93 89 88 88 86 87 90 92 91 84 67 54 28 176 130 124 125 116 103 106
130 127 131 133 132 130 129 126 123 122 121 120 119 117 114 112 112 110 109 105 102 100 96 92 87 87 87 82 78 79 80 91 83 65 43 264 199 163 135 107 113 147 237
123 122 119 126 128 129 128 126 124 122 121 119 118 116 111 108 109 111 110 109 106 105 101 95 88 83 78 70 62 65 64 68 75 51 311 260 248 210 173 129 293 304 299
116 118 118 115 115 120 123 124 124 122 121 118 115 112 110 108 107 106 106 107 109 107 102 96 89 84 70 55 50 47 35 36 30 316 278 270 269 249 265 272 271 272 283
122 120 121 120 119 120 123 127 124 123 123 119 115 114 109 102 103 106 103 101 103 102 97 89 77 63 49 32 25 22 19 3 336 298 266 282 266 263 271 273 272 266 269
147 143 136 131 134 133 127 115 112 111 111 109 110 113 106 103 102 98 89 93 90 88 88 78 58 41 35 10 350 5 358 304 287 278 280 288 276 270 272 274 272 268 267
155 151 147 143 141 137 128 130 115 107 107 110 118 116 110 99 88 80 79 75 73 71 70 45 29 12 11 335 322 300 272 273 276 275 279 285 282 280 279 279 277 274 271
156 156 153 146 143 144 138 138 139 133 128 128 135 130 121 114 107 108 101 81 79 93 77 46 324 314 301 282 264 260 261 265 267 271 275 288 286 281 281 285 286 281 275
158 160 160 154 150 149 143 149 142 147 145 142 136 142 139 138 141 134 131 114 94 87 123 58 308 293 294 286 277 268 266 265 267 270 284 285 289 286 284 286 287 288 282
166 166 165 159 157 148 151 155 155 157 151 142 147 155 151 152 155 155 156 162 205 217 205 198 252 270 275 280 278 270 262 258 261 266 272 283 285 288 288 289 289 289 289
170 167 167 163 153 149 151 160 156 161 153 154 166 163 160 163 166 166 170 189 219 222 221 249 337 349 323 309 297 286 274 263 265 265 270 275 282 290 294 293 295 295 294
164 165 170 163 155 153 152 154 153 158 159 169 173 174 178 179 176 171 178 201 211 194 181 220 263 326 317 311 300 294 286 278 268 265 267 272 273 284 292 294 296 297 297
169 166 168 160 160 159 152 148 152 153 162 172 173 180 189 187 183 177 192 209 196 182 196 231 247 232 291 307 300 294 290 281 275 276 273 271 269 273 275 293 297 300 301
167 163 161 156 158 147 134 119 107 120 171 176 186 194 191 193 189 184 198 207 190 179 204 213 234 259 251 276 303 307 295 286 280 270 267 271 277 276 279 287 292 300 303
158 159 161 155 160 148 141 148 156 191 213 217 211 205 197 198 199 192 204 205 195 195 207 211 220 270 298 324 350 321 308 293 277 274 274 281 283 281 281 282 282 286 297
167 169 167 166 166 168 169 170 169 176 202 222 218 215 205 198 205 200 203 209 203 196 213 215 198 206 285 23 96 339 320 319 307 284 279 278 281 289 289 290 286 284 284
170 172 172 172 169 166 155 129 92 70 47 342 253 247 232 215 214 210 209 213 213 199 208 221 204 193 220 261 168 174 234 273 306 293 276 275 287 291 289 288 284 282 283
179 172 167 167 164 160 155 157 163 176 204 223 229 240 256 236 224 218 213 214 218 215 216 222 213 215 197 231 249 219 218 230 273 302 300 286 283 278 276 286 287 283 280
169 165 162 158 157 160 164 167 170 191 216 231 235 240 253 252 235 226 219 215 218 224 224 224 224 229 215 215 225 237 250 258 242 262 289 298 294 270 267 271 275 278 281
152 150 150 150 159 160 161 167 171 183 199 214 239 237 249 253 244 237 230 219 224 231 232 227 222 225 232 233 235 229 226 234 244 248 273 290 293 288 279 271 268 271 276